Theta_e
280 281 284 286 287 287 286 286 284 282 284 283 284 284 287 284 284 282 284 285 284 286 286 286 283 284 286 287 286 284 284 284 284 285 288 288 289 290 288 290 289 289 290 289 289 288 288 288 288 288 287 288 289 293 295 295 294 294 294 295 295 294 293 293 292 291 291 291 291 290 290 290 290 290 290 289 289 288 288 288 287 287 286 285 284 284 285
281 280 282 284 286 284 285 284 284 285 283 284 286 287 288 286 286 288 284 283 284 287 286 287 290 287 287 284 282 283 284 285 286 286 287 288 289 290 290 290 290 290 291 290 289 288 288 288 288 288 288 288 290 293 294 293 293 293 293 293 294 294 293 292 291 291 290 290 290 290 290 290 289 289 288 288 287 287 286 286 285 285 284 284 284 284 284
278 280 281 282 285 285 284 283 283 284 284 285 286 287 287 285 286 287 285 283 285 287 285 286 287 285 284 284 284 285 286 285 285 286 288 289 289 290 290 291 291 291 291 290 289 289 289 289 289 289 289 289 289 291 294 293 293 293 293 292 292 292 293 291 291 290 290 289 290 289 290 289 288 288 287 287 286 285 285 284 284 284 284 284 284 284 284
276 279 280 280 282 283 284 283 283 283 283 282 284 284 285 284 285 286 284 284 285 284 288 287 287 285 286 288 288 287 288 287 285 286 288 288 289 290 291 291 291 291 291 290 290 290 290 289 288 288 289 288 288 290 293 293 293 292 293 293 293 292 291 291 290 290 290 290 289 289 288 288 287 287 286 286 285 285 284 283 283 283 283 283 283 284 284
276 278 279 282 283 282 279 282 284 285 285 286 286 287 287 288 289 285 283 285 286 286 288 288 286 287 288 287 287 289 288 287 286 287 289 290 290 291 292 292 291 290 290 290 291 291 289 289 289 289 289 289 289 290 291 293 293 292 293 293 293 292 291 290 290 290 290 289 289 288 288 287 287 286 285 285 284 284 283 283 283 282 282 282 283 283 284
276 277 280 281 280 275 278 290 290 287 285 285 284 285 287 288 289 289 290 290 285 285 286 289 288 288 290 292 293 292 293 291 289 288 288 290 291 291 291 290 290 290 289 290 290 290 290 289 289 289 289 290 290 289 290 291 292 292 293 293 293 293 291 290 290 289 289 288 288 288 287 286 286 285 285 285 284 283 282 282 282 281 281 282 282 283 284
275 278 280 280 276 277 289 289 289 290 290 289 288 289 289 289 289 289 289 289 289 288 289 290 290 290 291 287 286 289 289 290 292 293 292 290 290 291 291 289 288 289 289 289 288 288 288 289 288 287 288 288 288 288 289 290 291 292 293 293 292 292 291 290 289 289 288 288 287 287 286 285 285 285 284 283 282 282 282 282 281 281 281 281 281 282 283
277 277 281 274 276 286 285 282 285 288 291 290 288 286 288 287 287 289 289 291 292 291 288 287 285 287 286 283 285 287 287 287 291 290 290 291 290 289 290 289 289 289 287 288 289 290 288 287 287 288 288 288 288 288 288 289 290 291 292 292 292 291 290 289 289 288 288 288 287 286 285 284 284 284 283 282 281 281 281 281 280 280 280 281 281 281 282
278 277 280 279 281 282 286 285 283 284 284 283 285 282 286 288 289 289 290 291 291 291 290 284 284 284 286 287 292 287 287 289 288 290 292 292 289 289 289 288 289 288 288 288 288 287 286 288 288 288 287 287 288 287 287 288 289 290 290 291 291 291 290 289 289 288 288 287 286 285 284 284 283 283 282 280 280 280 280 280 279 279 279 279 280 281 281
275 276 269 271 275 276 282 287 285 288 286 288 289 285 286 290 290 291 290 290 290 290 287 284 284 285 286 287 290 292 288 290 290 288 288 287 288 288 289 288 287 286 285 285 286 288 287 287 288 287 287 287 287 287 286 286 287 288 289 290 291 290 290 289 288 288 287 287 286 285 284 284 283 282 281 280 280 280 280 279 278 278 278 279 279 280 281
272 273 275 275 274 279 283 282 285 288 288 289 287 283 282 290 290 289 290 290 290 289 286 284 286 286 284 287 291 294 291 290 288 290 289 289 289 288 287 287 287 286 286 286 286 286 286 287 286 286 286 286 287 287 286 286 286 287 288 289 289 289 289 288 288 287 287 286 286 285 284 284 283 281 280 279 279 279 279 279 278 278 278 278 277 278 279
278 279 275 276 275 281 281 281 282 286 288 290 287 272 279 288 288 290 289 290 290 288 285 286 287 287 285 287 292 293 289 289 290 290 291 289 287 286 285 284 285 285 285 286 286 286 286 287 285 286 286 287 286 286 286 285 286 286 287 287 287 288 287 287 286 286 286 285 285 284 284 283 282 281 279 278 278 278 278 278 277 277 277 277 276 276 277
276 281 271 268 276 282 280 282 285 286 291 289 280 277 285 285 288 289 290 290 291 289 286 287 287 289 293 294 289 284 285 288 288 285 285 286 286 286 284 285 284 284 284 285 286 286 285 285 284 285 286 286 286 286 285 285 285 287 287 286 285 285 285 284 284 285 284 284 284 283 283 281 280 278 278 278 277 277 277 276 276 276 275 275 275 275 276
277 278 275 277 277 283 281 281 286 288 288 275 280 285 283 285 284 287 289 290 290 289 288 287 289 291 291 291 286 283 285 287 284 284 283 284 283 282 282 282 282 284 283 284 285 284 283 283 284 285 286 286 286 285 284 285 286 286 285 284 284 284 283 283 282 282 281 281 282 281 279 279 278 277 276 277 277 277 277 276 275 274 274 274 274 274 274
271 269 276 269 273 283 286 285 284 284 285 285 284 282 283 284 285 285 285 286 284 287 286 288 290 290 287 287 289 288 284 284 286 286 284 284 284 285 284 285 283 283 284 284 284 284 282 282 283 284 285 285 284 284 285 286 284 284 283 283 283 283 282 281 281 280 280 279 280 279 278 278 278 277 276 276 276 276 276 275 275 274 273 273 273 273 273
280 278 276 279 284 285 288 289 287 287 286 283 286 287 286 284 284 285 286 283 285 287 288 288 287 286 285 285 285 284 284 284 284 284 283 282 282 282 281 282 282 280 282 281 282 281 280 281 281 283 285 285 284 284 285 282 282 281 281 281 281 280 280 280 279 279 278 278 279 278 278 278 277 276 276 276 276 276 276 275 275 274 273 273 273 272 272
284 282 285 283 281 286 289 292 290 292 289 284 284 286 288 287 284 282 287 287 284 286 287 287 288 286 285 287 285 286 287 285 284 284 285 284 283 282 282 282 280 280 283 282 280 280 280 279 281 282 282 284 282 283 281 279 280 280 279 279 279 279 278 278 278 277 277 277 277 277 277 277 277 276 275 275 275 275 275 275 275 274 273 273 273 273 273
282 281 281 281 278 281 286 283 281 291 291 284 283 285 288 286 287 286 289 286 287 286 284 286 283 286 286 286 285 284 284 284 282 280 280 279 278 278 278 279 278 278 278 277 279 280 280 278 279 279 279 280 283 281 278 279 279 279 278 278 278 277 276 276 276 275 276 275 275 276 276 277 277 277 276 276 276 275 275 275 275 274 273 273 273 273 273
285 283 287 282 283 282 285 288 285 286 289 285 282 283 286 285 284 286 285 287 287 286 285 287 287 286 284 285 286 283 282 282 281 280 280 278 277 278 279 278 275 276 276 278 278 277 279 278 276 276 277 277 278 276 277 278 278 278 278 278 277 276 276 275 274 275 276 275 275 274 274 275 275 276 276 276 276 275 275 275 275 274 274 273 274 274 274
285 287 286 284 284 283 285 286 286 287 287 283 281 281 281 282 282 284 282 282 283 284 286 286 286 285 283 285 285 283 282 282 281 279 278 277 277 275 274 273 273 274 275 277 276 275 277 275 274 275 276 276 274 273 275 276 276 277 277 277 277 275 275 274 274 274 275 274 274 274 274 274 275 274 275 275 276 275 275 275 275 274 274 274 274 274 275
285 284 280 281 284 286 285 285 283 284 287 288 283 281 281 281 284 283 280 279 282 285 286 284 283 283 282 281 281 281 280 280 279 278 277 276 276 275 275 273 273 276 274 274 274 273 274 274 273 274 274 273 271 273 275 275 276 277 277 275 275 273 273 273 273 273 274 274 274 274 274 273 274 275 275 275 276 276 275 276 277 277 276 276 276 277 276
282 285 285 285 284 281 285 286 288 287 285 286 287 282 282 282 282 282 283 278 277 278 279 282 283 284 281 279 279 279 279 279 277 276 276 274 273 272 272 271 271 271 272 273 273 274 274 272 272 272 272 271 271 272 273 273 275 276 275 274 273 272 272 273 272 273 273 273 273 273 273 273 273 272 274 277 276 275 275 277 279 280 280 277 277 278 277
285 287 285 290 291 290 289 291 289 288 285 285 287 285 285 284 282 283 283 281 280 281 279 277 281 280 281 279 278 278 277 277 277 276 276 276 275 274 272 273 272 272 271 270 271 272 272 270 270 270 270 269 270 271 272 273 274 274 274 274 273 272 272 272 273 273 273 273 272 272 272 273 272 273 272 272 279 279 278 277 278 279 280 280 280 280 278
289 287 288 289 289 290 287 287 288 289 286 286 287 287 285 284 283 282 282 283 283 279 278 277 276 279 279 279 280 279 276 274 274 274 274 274 273 273 272 274 273 273 273 273 274 275 272 270 270 269 269 268 268 269 270 271 272 273 274 275 274 273 273 272 273 273 272 272 272 272 271 272 272 272 272 272 272 277 278 278 278 279 280 280 280 281 280
287 282 286 287 288 282 279 282 283 284 283 286 286 286 284 282 281 282 282 279 280 283 282 280 276 276 279 277 279 280 278 275 274 275 274 274 274 274 272 271 271 272 273 273 272 271 270 269 269 268 269 268 267 267 268 269 271 272 273 274 274 272 272 272 272 272 272 272 271 272 271 271 271 271 272 272 273 272 275 278 279 279 280 280 280 281 280
281 282 281 279 279 280 280 281 284 282 280 282 280 278 278 280 281 280 279 280 280 280 282 280 279 276 278 279 278 276 276 275 274 274 275 275 273 273 273 272 272 271 271 270 270 269 268 268 268 268 268 267 266 267 267 268 269 270 271 272 272 273 272 272 272 271 272 272 272 272 272 272 272 272 272 273 273 273 272 273 275 277 279 280 280 280 280
281 284 286 286 285 284 281 286 286 282 279 280 281 279 279 279 279 278 277 277 277 278 280 279 278 276 274 274 275 275 278 274 273 274 274 274 275 275 273 271 270 270 268 269 268 268 268 267 267 267 267 267 265 265 266 267 268 269 269 270 270 271 270 271 272 272 272 272 272 271 271 271 271 271 272 272 273 273 273 273 273 273 274 276 279 280 278
282 278 281 286 284 287 286 278 277 278 279 279 280 279 278 279 280 281 280 279 278 276 276 275 277 277 277 273 277 276 274 276 277 273 275 275 272 270 269 268 267 267 267 268 267 266 267 266 266 266 268 266 265 264 264 265 267 268 268 269 269 270 269 270 271 271 271 271 271 271 271 271 271 272 271 271 272 272 273 273 273 274 273 275 275 278 279
277 277 276 278 281 281 279 278 279 279 278 277 278 278 279 280 279 280 279 279 277 277 277 272 272 274 278 275 277 277 276 275 275 275 274 271 269 267 266 266 266 265 266 266 265 264 265 265 265 266 268 265 263 263 263 264 266 267 268 267 268 268 269 268 269 270 270 269 270 270 271 270 270 270 270 271 271 271 272 272 272 273 273 272 272 273 277
276 276 278 279 280 282 283 280 279 277 277 278 279 277 278 281 280 278 277 275 275 279 275 274 275 274 273 275 274 277 279 277 276 273 270 269 266 265 266 267 267 267 267 268 267 265 264 265 265 265 267 264 264 262 263 264 265 265 266 267 267 268 268 266 266 267 267 268 268 270 270 269 269 270 270 270 270 271 271 272 272 272 271 270 272 273 273
277 278 278 279 280 281 282 280 278 277 277 276 277 278 276 279 279 278 276 274 274 275 272 274 274 272 273 276 272 271 273 272 271 269 267 265 264 265 265 268 272 273 272 270 267 264 264 264 264 265 266 264 262 262 262 263 264 265 265 266 265 268 269 270 270 268 268 267 267 268 268 268 268 268 269 269 269 270 270 271 270 270 270 270 270 271 273
279 277 277 278 279 279 278 278 278 277 277 276 278 278 278 279 279 277 274 275 273 274 272 273 274 275 273 268 268 269 270 269 268 267 267 267 267 265 265 266 266 266 265 265 266 265 265 265 266 268 266 264 263 262 262 263 263 264 265 265 264 265 266 269 267 268 267 267 267 267 268 268 268 268 268 268 269 269 270 270 270 270 270 269 269 270 271
280 279 277 277 278 278 278 278 279 276 276 276 275 273 273 275 276 275 275 274 273 272 275 274 272 271 267 267 268 269 270 271 271 271 271 271 270 269 267 266 265 265 267 268 267 267 268 269 270 268 265 265 263 262 261 261 262 264 265 266 265 264 265 268 268 266 266 265 266 267 267 267 268 268 268 268 269 269 269 269 270 270 270 270 270 271 271
283 282 281 279 281 281 280 278 277 276 275 274 273 274 275 275 275 274 273 272 273 273 272 271 270 267 268 269 270 271 272 275 275 274 272 271 271 270 267 266 266 266 268 269 270 270 270 270 269 268 267 264 262 262 262 261 262 262 263 263 263 263 264 264 265 265 265 266 266 266 266 266 267 267 267 268 268 268 269 269 269 270 270 270 270 270 270
278 277 277 277 278 280 281 280 278 278 277 275 274 273 273 273 272 272 272 272 271 271 273 273 272 271 272 273 273 272 273 272 272 272 271 270 267 266 267 270 271 271 272 270 269 269 269 267 267 266 264 263 262 262 261 262 263 264 264 264 264 264 264 264 263 264 265 265 265 264 265 265 266 266 267 267 268 268 268 268 269 269 269 269 270 269 268
277 275 274 273 273 275 277 277 277 276 275 273 271 270 270 270 270 270 269 269 269 270 272 273 273 273 273 273 272 271 269 269 268 268 267 267 267 268 269 271 271 272 272 270 268 267 268 268 266 265 267 267 266 265 264 264 264 263 263 263 263 264 264 264 263 263 263 263 264 265 265 266 266 266 266 266 267 267 268 268 268 268 269 269 269 268 267
273 272 270 269 269 270 270 270 272 272 271 270 270 269 267 267 267 267 267 266 266 267 269 272 273 272 271 271 270 269 269 269 269 269 269 269 269 269 270 271 271 270 271 270 268 267 267 267 264 264 266 266 266 265 263 263 262 260 260 260 261 261 261 261 261 261 262 262 263 264 264 264 264 265 265 265 266 266 267 267 267 267 268 268 268 268 267
267 268 267 266 265 264 264 266 267 266 265 264 264 265 265 265 265 264 264 263 263 264 267 269 269 270 270 269 268 267 266 266 265 266 267 267 267 270 270 268 268 268 267 265 265 265 265 264 263 264 264 263 263 262 262 262 262 260 258 258 258 259 260 260 260 261 261 261 262 262 263 263 264 264 264 264 265 265 266 266 266 267 267 267 267 267 267
267 267 266 266 264 263 262 262 261 262 263 263 262 262 263 264 264 263 262 262 262 263 265 267 267 266 266 267 267 265 263 263 263 263 263 264 265 267 264 262 261 261 262 262 262 262 262 262 262 261 261 260 257 259 258 261 261 258 256 257 257 258 259 260 260 261 261 261 261 262 262 262 263 263 264 264 264 264 265 265 266 266 266 266 267 267 266
262 262 262 263 262 262 260 259 258 258 258 259 260 260 261 262 262 261 261 261 260 261 262 263 264 263 262 262 262 262 261 260 260 259 259 260 262 265 264 261 259 259 260 260 260 260 260 260 260 259 259 259 257 258 258 260 260 258 256 256 257 258 258 259 259 259 260 259 261 262 262 262 263 263 263 264 264 264 264 264 265 265 265 265 265 266 265
260 260 260 260 260 260 259 258 257 257 257 257 257 257 258 259 261 260 259 259 259 259 259 260 260 259 258 258 259 259 259 258 258 258 258 259 261 261 262 260 259 258 258 259 258 259 259 259 259 258 258 258 257 259 257 259 257 255 256 256 256 257 257 258 258 259 259 260 261 261 261 262 262 262 262 262 263 263 263 263 264 264 264 264 265 265 265
257 258 258 258 258 258 259 258 258 256 256 255 256 256 256 257 258 258 258 258 258 258 257 257 257 257 257 257 258 258 257 257 256 257 257 257 257 258 260 258 258 256 259 258 258 257 257 255 257 257 257 257 257 259 260 259 256 254 255 255 257 257 257 258 259 259 259 259 260 260 260 260 260 261 261 261 262 262 262 262 263 263 263 264 264 264 264
255 255 256 256 256 256 257 257 256 255 254 254 254 254 255 255 255 256 256 256 256 256 256 256 255 255 255 255 256 257 256 256 255 255 256 255 255 256 256 255 255 255 258 257 256 254 256 255 256 254 258 259 258 259 260 257 254 254 255 255 257 257 257 258 258 258 257 257 258 258 258 259 259 260 260 261 261 261 262 262 262 262 263 263 263 263 263
253 253 254 254 254 255 256 256 256 255 254 253 254 254 253 253 253 253 253 254 255 255 254 254 254 253 254 254 254 255 255 254 253 253 253 253 252 252 253 253 253 255 257 256 256 255 255 255 254 257 258 259 259 259 259 255 254 254 253 255 255 255 256 256 257 256 257 258 258 258 258 259 259 260 260 260 260 261 261 261 262 262 262 262 263 263 263
251 252 252 252 253 254 254 254 254 254 254 254 253 253 252 252 252 252 252 252 253 253 254 253 253 252 251 252 252 252 252 252 251 252 253 255 257 255 254 254 254 254 255 256 255 254 254 254 257 258 258 258 258 259 256 255 254 254 253 254 254 254 255 255 257 256 257 257 257 258 258 259 259 259 260 260 261 261 261 262 262 262 262 262 262 262 262
251 251 251 251 251 251 252 252 253 254 254 253 254 254 252 251 251 252 251 250 251 251 251 252 252 250 249 249 249 250 250 250 251 251 252 252 252 252 254 254 253 255 255 256 253 254 253 256 257 257 258 258 258 257 254 254 253 251 252 253 252 255 255 256 257 257 257 258 258 258 258 259 259 260 260 260 261 261 261 262 262 262 262 262 262 262 262
251 251 250 250 250 251 251 252 254 254 253 253 252 252 252 251 250 251 250 250 249 249 249 249 249 249 249 248 248 250 252 253 254 249 248 249 251 251 252 253 254 254 255 253 253 253 254 255 256 257 257 257 257 254 253 251 252 250 252 252 253 254 256 256 257 257 257 257 258 258 259 259 259 259 259 259 259 260 260 260 260 261 261 261 261 261 260
249 249 250 249 249 250 251 251 251 250 250 249 249 249 250 250 249 250 250 250 250 250 250 250 249 247 248 247 246 246 247 249 254 253 250 250 250 249 249 249 252 254 254 254 254 254 255 256 256 256 256 257 255 252 252 252 252 251 252 253 252 254 254 255 255 255 255 256 257 256 256 256 256 257 257 258 258 259 259 259 260 260 260 260 260 260 259
248 248 249 249 249 249 250 251 250 250 248 248 247 248 249 249 249 250 250 249 249 250 249 248 248 248 247 248 248 245 245 247 249 250 250 250 248 248 249 251 252 253 253 251 250 250 254 254 254 255 255 255 251 251 250 251 251 252 252 253 253 253 253 253 253 253 254 255 255 256 256 256 256 256 256 257 257 258 258 258 258 259 259 259 259 259 258
248 247 248 248 248 247 248 249 248 247 246 247 246 247 248 248 248 250 250 248 248 249 248 247 247 248 248 246 245 244 243 244 245 245 246 247 246 246 249 249 250 253 253 251 248 251 252 252 252 253 253 250 250 250 251 252 251 252 252 254 254 252 254 254 256 256 256 255 255 256 256 256 257 257 257 258 258 258 258 259 259 259 259 259 259 259 258
247 247 247 247 246 246 245 245 246 246 245 246 245 247 248 247 247 248 247 247 246 247 247 248 247 247 246 246 245 245 245 244 246 250 248 248 247 250 251 250 250 251 251 251 249 248 248 247 248 251 252 252 251 250 250 251 251 252 253 252 252 253 253 255 255 255 256 257 257 257 258 258 258 258 259 259 259 259 259 259 259 259 259 259 259 259 258
244 244 244 244 244 244 243 243 245 245 245 245 245 245 245 246 246 245 245 250 246 244 245 245 247 247 246 245 245 246 246 247 247 246 249 248 248 247 249 251 248 248 248 247 248 247 247 248 250 251 252 251 250 249 252 253 252 251 252 253 254 254 255 256 256 257 257 257 257 257 257 258 258 258 258 258 258 258 258 258 258 258 258 258 258 258 258
Wind_Speed
5 3 8 12 10 11 10 15 13 15 18 15 18 20 19 12 14 21 8 11 18 14 10 9 8 5 4 4 2 4 2 2 3 7 6 4 5 6 4 6 4 5 7 7 7 7 8 6 7 6 5 5 4 4 4 4 4 4 3 4 4 3 3 4 5 4 4 4 4 4 6 6 6 7 7 7 7 8 8 8 7 9 9 11 12 10 8
3 6 1 4 13 5 7 10 13 15 13 20 24 25 21 14 15 20 4 9 14 12 9 11 10 8 7 3 0 2 2 4 6 5 5 6 7 7 6 6 6 6 8 7 8 7 7 7 8 7 7 7 8 8 7 5 5 5 5 4 4 6 5 4 4 5 5 5 7 6 7 7 7 7 8 9 9 9 9 8 9 9 10 9 11 12 11
1 3 4 3 8 9 6 5 8 11 16 20 23 21 13 9 14 19 8 7 18 8 8 8 7 1 1 2 4 5 6 6 7 6 7 8 8 7 7 7 8 7 7 8 7 7 8 9 9 8 8 7 7 8 7 7 7 6 6 5 4 5 7 5 5 6 6 6 7 8 8 7 8 8 9 8 9 9 9 9 10 10 10 11 10 9 10
1 1 4 3 4 4 7 8 11 15 18 18 17 14 9 9 21 19 9 13 22 3 11 4 1 2 5 7 7 5 7 8 7 8 9 9 9 9 10 9 8 9 10 9 8 10 9 6 6 7 7 7 7 9 7 7 7 6 7 7 7 6 4 6 7 7 7 7 6 7 7 8 8 8 8 8 9 10 10 10 9 9 10 10 10 9 8
3 1 2 8 6 6 1 9 20 25 18 13 9 13 15 20 21 12 11 25 7 6 8 7 6 7 9 7 7 9 8 8 9 11 11 11 10 10 10 11 9 7 8 9 10 9 6 7 8 9 9 8 10 9 9 8 7 7 7 7 7 7 7 7 7 7 7 8 7 7 7 8 7 7 8 8 9 9 9 9 9 10 10 10 8 7 9
4 2 6 3 6 8 12 20 21 18 18 20 20 20 24 25 17 19 19 14 2 5 7 12 12 11 12 14 14 10 9 8 9 10 9 11 12 11 10 9 7 7 5 7 7 7 6 6 8 8 9 10 8 6 7 6 9 8 9 8 8 9 8 8 8 7 7 7 8 8 7 8 8 7 7 8 8 7 8 8 9 8 7 10 9 9 9
4 4 4 7 11 11 21 3 11 20 25 26 29 30 23 19 16 16 15 16 13 10 11 11 11 11 10 3 6 9 10 10 10 12 12 13 13 13 11 7 7 8 8 4 3 3 6 8 6 5 6 5 4 6 7 8 8 9 8 8 7 7 8 8 7 7 7 7 8 7 7 7 7 7 7 7 8 7 8 9 9 10 10 10 8 9 9
4 4 7 6 15 14 2 1 6 14 22 23 15 15 15 11 12 17 21 28 24 12 7 3 0 3 3 5 9 11 10 7 11 11 12 13 12 11 9 8 9 6 4 4 4 5 4 4 5 6 6 5 6 5 5 7 7 7 7 8 9 8 8 8 8 8 8 7 7 6 7 6 7 8 7 8 9 7 7 6 5 6 5 6 9 9 8
10 7 12 12 7 10 12 9 8 13 12 10 15 16 20 17 17 19 23 22 15 14 7 6 2 2 2 6 14 6 8 12 11 14 15 12 7 8 9 7 8 3 3 3 4 3 4 6 6 7 5 7 7 6 7 7 8 8 8 10 10 9 8 8 9 9 9 9 9 8 7 8 8 8 8 8 7 6 8 7 8 8 8 7 7 9 10
5 8 2 2 7 10 21 12 4 6 4 8 8 6 18 12 20 19 17 19 17 15 5 7 4 3 1 11 16 10 10 14 11 9 9 5 7 8 9 3 2 2 3 3 3 4 5 5 4 4 6 7 6 6 6 6 7 8 9 12 8 7 7 7 8 8 9 9 9 9 9 10 9 7 6 5 7 7 10 10 9 8 8 8 6 7 10
5 5 10 10 13 21 9 8 9 10 13 15 10 6 15 20 16 13 18 20 17 12 8 9 8 6 6 15 16 13 12 8 6 9 10 11 11 8 5 5 6 5 5 4 3 2 2 4 3 5 6 7 7 7 6 7 7 9 11 6 5 8 8 7 7 8 9 8 9 10 11 10 10 11 10 9 7 6 6 7 8 7 7 8 7 5 5
10 12 9 12 6 13 5 7 6 13 14 17 12 4 17 5 18 18 17 20 17 8 12 14 13 14 13 15 17 10 5 7 10 10 11 9 7 4 3 4 5 3 1 2 2 3 5 5 4 7 7 7 7 7 6 6 8 9 7 7 7 5 5 7 7 8 7 8 9 10 11 9 9 9 8 8 9 8 7 6 8 7 7 7 10 7 6
8 10 6 3 9 5 4 7 10 14 17 16 10 19 13 7 12 15 19 18 17 14 15 15 15 17 17 13 3 4 2 1 5 4 3 3 2 3 3 2 1 1 3 4 5 5 4 5 6 7 7 8 7 7 7 7 11 10 7 6 6 7 7 8 8 8 6 8 9 7 7 8 7 6 6 8 8 8 8 7 7 8 8 7 8 7 5
10 10 7 10 8 7 9 0 16 14 11 8 22 5 2 6 5 10 15 19 18 15 16 11 10 10 12 11 1 2 3 6 3 3 1 1 1 1 0 0 0 1 2 2 1 1 2 5 6 7 7 8 7 7 7 10 10 4 5 6 6 7 8 7 7 7 8 7 7 8 8 9 9 7 5 7 8 8 7 8 10 9 8 7 7 6 4
5 3 9 0 12 7 15 15 4 4 10 9 4 3 0 1 6 11 7 6 4 10 9 13 15 13 6 7 10 7 5 4 6 4 3 4 4 4 2 2 1 2 3 2 1 1 1 3 5 5 6 6 6 5 9 8 3 5 5 5 6 6 6 7 7 8 8 9 9 8 9 10 12 11 9 10 9 9 10 10 11 11 10 9 9 7 6
15 13 11 15 9 8 18 22 14 15 10 3 7 8 4 0 5 8 8 5 9 10 11 13 11 8 6 5 6 5 5 6 5 4 3 2 2 2 1 0 1 2 3 2 1 1 1 3 4 5 7 6 6 7 9 3 5 5 6 5 5 6 6 6 6 6 7 7 7 7 9 10 10 11 11 10 10 10 10 11 11 10 7 8 8 8 9
12 15 18 2 2 12 12 15 8 14 12 5 6 5 10 8 3 3 6 10 7 9 11 11 13 8 9 9 5 6 8 6 7 7 7 5 4 3 4 2 0 1 2 2 3 2 1 3 3 4 4 6 5 7 3 5 5 7 6 6 6 6 6 6 6 5 5 6 7 7 8 10 11 10 10 11 11 8 10 10 10 11 10 9 11 8 7
2 5 3 1 1 3 8 3 2 12 15 4 2 4 9 4 7 10 10 9 11 10 6 8 3 9 9 10 6 7 6 4 2 2 1 0 2 2 3 2 2 2 3 3 3 2 0 0 1 1 3 3 5 3 2 5 6 7 7 7 6 6 5 6 6 6 7 5 5 5 7 7 8 9 11 11 11 10 10 10 10 10 10 9 8 8 7
10 12 11 6 6 2 8 7 1 3 1 5 4 3 3 5 6 8 1 11 12 14 11 10 11 10 7 9 9 6 3 4 4 2 1 1 1 2 2 1 3 3 3 3 2 1 0 0 0 1 2 3 3 2 4 4 5 7 7 7 6 5 6 5 4 6 7 6 5 4 4 4 4 5 6 7 7 9 9 10 10 8 9 10 10 9 8
15 19 9 8 4 3 5 7 3 3 4 2 4 3 3 3 3 4 3 5 6 7 9 11 9 8 8 10 9 6 4 1 0 1 2 3 3 2 2 2 3 3 3 3 1 1 1 2 1 1 2 3 2 2 3 3 4 7 7 7 7 6 6 5 5 5 6 7 7 6 6 6 7 6 6 7 9 11 13 13 12 11 11 12 13 13 11
7 3 2 1 5 0 1 3 4 5 8 9 7 6 5 4 7 6 3 2 7 10 8 7 6 7 6 4 3 3 2 2 2 3 4 4 4 4 4 2 2 3 4 3 2 2 1 1 0 1 1 1 1 3 4 4 5 6 7 5 5 5 5 5 5 5 6 7 7 7 7 6 6 7 9 9 9 7 5 4 6 10 13 13 12 10 10
7 16 13 12 8 4 6 9 16 13 9 8 8 4 3 4 6 7 7 3 3 2 2 6 6 6 5 5 5 4 3 3 3 4 4 4 5 4 3 3 4 3 3 2 2 0 1 1 1 0 1 1 1 1 2 4 4 5 5 6 5 5 5 5 5 5 5 5 6 6 7 7 6 4 4 6 6 5 6 5 5 4 4 7 6 7 9
18 10 9 13 11 7 9 17 15 10 7 7 8 10 10 6 4 7 10 8 4 3 2 0 5 5 7 7 5 6 4 3 2 3 6 7 5 5 4 5 3 3 2 2 2 1 0 1 1 1 1 1 1 1 1 1 3 4 5 5 5 5 5 5 6 6 5 5 5 5 5 5 5 6 5 3 8 9 6 5 4 4 4 3 6 9 7
11 7 17 13 11 12 7 8 11 11 8 8 9 8 3 6 7 6 5 7 10 4 1 2 1 5 6 6 8 9 4 3 4 4 3 3 4 4 2 3 4 3 2 2 1 0 0 0 0 0 0 1 1 1 1 2 2 4 5 5 5 5 5 4 5 6 4 4 4 5 5 5 6 6 6 6 5 5 7 6 6 8 8 8 8 11 12
10 3 7 7 7 2 2 1 2 3 6 9 8 8 7 8 6 7 7 4 5 12 9 5 2 2 9 7 7 9 7 4 4 5 5 5 4 5 4 4 4 3 2 2 1 1 0 0 0 0 0 2 1 2 2 2 3 4 5 5 5 4 5 5 5 6 5 5 5 6 6 7 7 7 8 8 9 8 4 7 9 10 11 11 12 12 14
7 8 7 6 6 4 1 3 1 2 5 6 4 3 2 6 8 5 5 6 6 5 10 8 7 2 5 10 8 8 9 7 6 5 6 6 4 4 4 4 4 3 3 3 2 2 1 1 1 0 1 3 2 2 1 2 2 4 4 5 4 5 5 6 6 5 6 6 7 7 6 6 6 7 7 7 8 7 6 4 4 5 8 12 13 14 15
5 9 13 8 3 1 2 9 7 4 4 2 6 6 5 7 8 7 6 6 6 5 7 7 7 7 5 5 7 5 11 7 5 5 5 6 6 4 3 2 3 3 3 2 1 1 2 1 1 1 2 3 2 1 1 1 2 3 3 4 3 4 7 6 6 6 6 6 7 6 6 7 7 8 8 8 7 7 8 10 10 10 9 8 11 14 11
6 3 1 10 10 11 8 3 4 6 5 7 8 9 7 8 10 11 11 10 9 8 7 5 8 9 10 4 8 9 6 7 8 5 6 5 3 1 2 2 3 3 2 2 2 3 3 3 2 3 4 3 1 1 1 2 2 3 3 2 2 2 2 4 4 4 5 5 5 6 7 7 7 7 7 7 8 8 7 7 8 8 6 4 3 8 12
3 3 4 3 3 7 10 8 7 8 8 5 6 8 9 10 8 10 8 8 8 8 7 4 3 4 9 6 7 9 8 7 7 6 5 3 3 3 3 4 4 3 3 3 3 3 3 2 2 3 4 3 1 1 2 3 4 3 3 2 2 2 3 3 3 4 4 4 5 5 6 6 5 5 6 6 5 6 6 7 8 7 5 3 3 5 8
3 3 6 7 7 10 12 8 7 6 7 6 9 6 6 13 10 7 8 6 6 10 6 5 6 6 5 7 5 8 9 8 8 6 5 4 3 3 3 4 5 4 3 4 4 2 2 2 2 3 4 4 2 2 2 2 3 2 2 2 3 4 4 3 3 3 4 4 5 5 6 5 4 5 5 6 7 7 8 9 8 7 6 6 7 9 11
6 7 8 7 9 7 11 10 8 6 6 5 6 8 4 8 12 9 6 5 5 7 4 5 6 6 5 6 5 5 6 7 7 6 5 3 2 2 1 1 3 4 5 4 4 3 3 1 1 2 4 3 2 2 2 3 3 2 2 1 2 2 4 4 4 4 4 4 4 4 5 4 4 5 6 6 6 7 7 6 6 7 6 7 8 9 8
14 11 10 8 8 12 9 7 9 8 6 5 8 8 6 9 10 9 6 6 5 6 7 6 7 7 5 4 4 6 7 7 6 6 4 4 3 3 2 2 4 5 4 4 3 3 2 1 3 3 3 2 1 2 2 2 2 3 3 3 2 2 2 4 3 3 3 4 4 4 5 5 6 6 6 6 7 7 7 7 9 8 7 8 9 9 5
16 12 9 10 9 10 10 5 10 8 7 8 6 4 4 5 6 6 5 5 5 4 6 6 5 4 4 4 5 6 6 7 7 7 6 6 5 5 3 3 3 3 2 2 1 0 1 2 3 2 3 2 1 1 2 2 2 3 2 2 2 1 2 3 4 3 3 4 5 5 4 5 5 6 7 7 6 6 7 8 8 8 8 8 9 6 6
9 9 11 7 10 15 16 10 7 10 8 7 6 7 8 7 7 6 5 5 6 6 5 4 4 4 4 5 5 5 4 5 6 6 6 6 5 5 3 3 2 2 2 3 3 4 4 3 4 3 2 1 0 0 0 1 2 2 1 1 2 1 2 3 3 3 4 5 5 5 5 5 5 6 6 6 6 6 8 8 8 8 9 9 8 6 6
14 12 10 9 9 9 9 11 11 10 10 10 8 8 7 7 7 7 5 7 6 3 2 4 4 4 5 6 8 8 9 8 6 5 5 4 3 3 2 3 4 5 7 7 7 7 5 4 4 4 2 1 1 0 0 0 1 2 2 2 2 2 2 3 2 4 5 5 4 5 5 5 6 5 6 6 7 7 7 8 8 8 8 9 7 5 7
11 12 11 11 11 12 12 10 9 9 10 10 8 8 8 7 7 7 8 5 3 4 4 4 4 6 7 8 8 8 7 5 4 4 4 3 2 1 2 6 6 6 6 6 7 7 6 5 8 7 4 2 2 1 1 1 1 2 1 1 2 3 3 3 4 3 4 4 5 5 5 6 6 6 6 6 6 6 7 8 8 8 9 9 7 6 6
11 12 11 10 10 13 13 11 9 10 11 10 9 9 10 9 9 6 4 4 5 6 5 3 6 8 8 7 7 7 7 5 5 4 4 3 3 3 4 5 6 6 5 5 8 7 6 6 9 7 4 3 4 4 3 1 1 1 1 2 2 3 3 3 3 4 5 4 5 5 6 6 5 6 6 6 7 7 7 8 8 8 8 8 7 7 6
11 11 10 10 8 14 14 11 9 11 12 12 9 8 7 6 5 5 5 5 5 5 5 7 8 7 7 7 7 7 6 6 5 4 4 4 4 4 7 7 5 5 5 4 6 6 5 7 10 7 6 5 6 5 5 4 3 1 2 2 2 2 4 3 4 5 5 4 6 5 5 5 6 6 6 6 7 7 7 8 8 8 8 8 7 8 8
14 12 12 11 10 10 10 9 11 12 12 11 9 8 6 6 5 5 6 7 6 5 5 5 6 7 5 6 6 6 6 6 5 5 5 5 5 8 7 6 5 5 3 4 5 5 6 8 6 6 6 6 5 7 5 5 4 1 2 2 2 2 3 4 4 6 5 5 4 5 5 6 6 6 6 7 6 7 7 9 8 8 8 8 8 8 8
9 10 9 9 10 8 10 11 11 10 9 9 9 9 6 5 6 6 5 7 7 7 6 5 5 6 5 5 5 5 5 5 4 5 5 4 3 8 7 6 6 5 6 7 6 6 8 10 7 6 6 6 5 6 6 6 4 3 2 3 3 4 4 5 4 4 5 4 5 6 6 6 6 6 7 6 7 7 7 7 8 8 8 8 8 8 8
9 8 7 9 9 9 9 9 10 8 8 8 8 7 6 5 3 7 7 7 6 7 7 6 6 6 5 4 4 3 3 4 5 5 4 2 5 4 6 4 5 6 7 6 6 6 8 7 6 6 6 6 6 6 5 7 4 3 3 3 3 4 4 5 4 5 5 5 6 5 6 6 6 7 7 7 7 7 7 7 8 8 8 8 9 8 8
8 8 9 9 8 8 8 7 8 9 9 8 7 7 7 6 6 7 6 5 5 6 6 7 8 6 4 3 2 3 4 5 5 6 5 4 3 4 6 3 4 5 8 8 6 6 6 5 6 5 5 6 6 8 8 6 5 4 3 4 4 3 4 4 5 5 6 5 5 5 6 6 6 7 6 6 7 7 7 7 8 8 8 8 9 9 8
9 9 8 8 7 7 7 7 9 9 8 8 7 7 6 6 6 6 6 6 6 5 6 5 5 6 5 4 4 5 5 5 7 5 6 7 6 6 6 1 4 4 7 6 5 5 6 5 5 4 8 8 7 10 9 6 4 4 4 3 5 5 5 5 5 5 5 5 5 6 5 6 6 7 7 7 7 7 7 8 8 8 8 8 8 8 9
5 5 5 6 6 6 6 7 7 8 10 8 7 7 7 6 6 6 5 4 5 6 5 4 4 4 5 4 5 5 4 4 4 4 3 3 2 2 4 4 4 4 7 7 5 5 5 5 5 8 11 12 12 11 7 5 4 4 4 4 5 5 5 5 5 5 5 6 6 5 6 7 6 6 7 7 7 7 7 7 8 8 8 8 8 8 8
7 6 6 5 4 5 5 5 6 7 6 5 5 7 6 7 6 5 6 7 5 4 4 4 4 5 5 5 4 2 1 2 1 1 4 2 1 0 4 7 6 5 7 8 5 5 5 5 7 11 11 12 12 11 6 5 6 5 3 5 5 4 5 5 5 5 6 5 5 6 7 6 6 6 7 7 8 8 8 8 8 8 8 8 8 8 8
5 6 6 6 10 8 5 3 3 4 4 5 6 7 9 8 6 5 5 5 7 5 3 2 3 3 2 2 2 3 3 3 2 1 1 2 2 2 5 4 5 5 8 8 4 5 5 8 11 11 12 12 11 7 6 5 6 4 5 6 4 6 5 5 5 5 5 5 6 5 6 6 6 6 7 7 7 8 8 9 8 8 7 8 8 8 8
5 6 7 8 8 7 5 6 6 6 5 6 9 7 6 7 6 5 4 4 3 3 2 2 2 2 0 1 1 3 4 4 4 3 4 3 2 3 4 5 5 7 7 4 5 5 6 6 8 11 12 12 10 6 6 6 6 5 6 5 5 5 5 5 5 5 5 5 6 7 7 7 7 7 7 7 8 8 8 8 9 8 8 7 8 8 8
7 9 8 6 7 7 6 6 8 9 8 6 2 3 3 4 4 3 4 5 6 4 3 3 4 4 4 4 3 2 2 4 6 2 2 6 5 4 4 4 5 8 8 5 6 6 9 10 11 10 10 9 6 5 5 5 5 5 5 5 4 5 5 5 5 5 5 5 5 5 6 6 6 6 6 7 8 7 7 8 8 8 8 8 8 8 8
6 5 5 5 6 7 7 6 6 6 4 2 2 2 3 4 3 3 5 7 8 7 6 6 7 6 3 3 3 3 1 1 1 3 4 5 5 5 5 5 8 8 6 4 5 5 7 9 10 9 9 6 4 4 4 5 4 5 5 5 5 5 5 5 6 5 5 6 6 6 6 6 7 6 7 7 7 7 8 8 8 8 8 8 8 7 7
4 3 5 5 5 5 4 5 4 2 1 2 2 2 2 2 4 4 4 4 4 5 4 3 3 4 3 3 1 1 1 1 2 3 4 5 4 4 4 4 4 6 6 4 3 5 6 9 9 8 6 3 4 4 4 5 4 4 4 6 5 4 6 7 5 6 6 6 6 6 6 7 7 8 8 7 7 8 8 8 8 8 12 9 6 6 6
4 5 4 4 1 1 1 3 3 2 1 1 2 3 2 3 1 3 3 3 3 5 6 5 4 3 3 4 4 4 4 3 3 4 3 5 3 4 4 4 4 5 5 5 4 5 5 5 5 6 6 6 5 4 4 5 4 5 4 5 4 5 4 6 5 5 5 5 5 5 6 6 6 7 6 7 7 7 7 7 7 7 6 6 6 5 5
1 0 1 3 1 1 2 1 1 3 3 3 3 3 4 4 3 4 4 2 1 0 1 3 5 2 1 1 3 4 3 2 3 3 4 4 4 3 5 5 4 5 4 4 5 5 5 5 5 6 6 6 5 5 5 7 5 5 5 6 4 5 5 6 5 5 5 6 5 6 6 6 6 6 7 7 6 6 7 6 6 6 5 5 4 4 4
Wind_Direction
61 27 139 148 160 181 171 179 174 173 185 178 193 215 220 130 204 228 219 179 226 236 192 212 216 200 216 223 209 211 217 340 322 279 287 313 297 289 286 270 254 243 251 246 241 236 235 231 230 223 217 222 240 234 230 205 182 188 174 162 154 149 150 158 159 158 149 137 117 121 129 130 133 134 131 124 122 126 129 131 135 141 139 139 138 133 131
54 15 25 166 150 136 146 174 182 190 175 196 204 218 214 187 223 238 180 208 233 229 206 202 222 222 227 244 179 352 319 245 237 256 275 262 261 264 270 268 260 243 248 255 248 237 231 223 223 215 208 208 205 206 207 198 187 183 153 175 166 156 165 170 161 150 143 142 141 139 140 144 143 140 136 136 135 135 138 140 139 139 138 141 140 142 140
33 353 22 57 138 150 164 183 177 188 200 210 215 220 220 214 257 255 251 284 272 231 185 215 246 305 25 330 272 232 244 254 249 253 257 255 252 256 259 258 257 253 251 251 257 250 242 225 221 215 214 207 202 209 203 190 191 176 165 167 175 177 174 166 164 155 149 157 150 154 154 146 145 144 143 141 140 139 140 144 145 146 143 141 142 144 144
210 328 89 106 82 108 157 178 195 202 205 213 221 223 211 190 227 236 243 265 254 113 190 205 186 189 220 242 257 250 237 234 239 245 252 256 257 254 252 249 241 245 246 249 246 245 244 233 219 213 209 203 200 211 194 192 185 166 174 175 175 182 175 165 165 171 162 155 160 154 149 152 153 150 147 147 146 148 147 149 150 146 147 146 142 140 133
219 283 167 120 114 72 284 227 213 205 203 208 225 230 218 212 219 217 217 237 232 178 170 179 230 229 236 235 240 253 255 235 222 229 236 243 252 260 263 263 256 237 232 230 232 242 240 225 216 214 201 194 208 199 189 189 163 172 182 180 178 180 174 174 178 177 165 163 163 162 163 156 154 153 155 150 148 151 156 151 143 150 147 140 136 131 134
170 183 150 129 94 204 225 224 208 175 187 201 210 220 218 221 202 217 220 244 160 145 146 187 204 208 227 222 233 224 233 240 237 243 245 253 257 261 259 252 256 259 236 232 229 229 232 228 218 209 195 205 207 187 179 167 175 181 180 188 186 184 177 180 176 171 168 166 166 167 161 158 157 159 157 157 153 149 143 147 150 141 138 138 137 139 141
152 206 137 120 205 227 238 75 138 179 196 198 206 220 221 222 221 243 264 262 244 202 196 188 197 207 233 283 266 258 232 227 240 245 245 242 243 244 251 261 251 246 250 259 243 230 225 217 212 189 209 205 169 167 173 179 187 181 188 186 195 188 182 178 170 170 169 170 165 161 161 159 158 159 158 149 151 153 156 158 155 153 150 146 147 142 140
60 108 157 171 216 230 3 202 184 193 202 209 205 243 244 229 211 218 231 236 236 230 221 195 166 201 259 289 256 240 241 214 225 231 237 240 234 240 239 233 250 246 247 245 238 243 220 183 192 188 197 172 172 182 170 182 181 188 188 196 199 188 184 176 174 171 166 167 164 159 160 160 161 162 162 161 157 152 146 139 130 131 133 138 143 140 138
156 200 188 218 357 336 269 241 216 185 183 160 174 215 240 210 214 207 227 240 242 241 221 119 56 21 353 301 270 227 220 233 226 222 234 230 231 230 245 222 241 224 215 207 223 197 183 185 184 197 170 166 171 161 173 185 180 188 193 205 205 192 184 179 175 170 171 168 166 165 164 165 169 168 161 158 154 149 145 148 148 152 151 148 148 145 145
132 131 216 332 269 259 245 225 62 117 130 135 166 179 263 218 214 208 217 232 231 234 189 125 149 69 18 275 265 244 214 231 225 235 248 261 242 235 241 252 241 237 238 239 240 192 197 199 193 155 160 159 161 169 182 177 183 199 205 214 196 180 189 180 176 172 173 171 168 168 168 175 172 165 155 146 158 164 160 157 156 155 146 139 144 150 149
104 140 182 201 207 232 242 119 159 150 135 141 113 142 259 246 192 192 202 227 229 216 144 164 133 143 207 246 247 250 216 224 184 225 232 226 229 232 228 228 247 245 239 219 228 188 173 203 182 150 148 151 160 180 177 181 192 206 216 207 179 192 191 173 171 175 176 176 173 172 176 177 171 167 168 166 154 152 153 149 148 144 146 142 138 137 143
193 181 190 216 213 242 221 181 152 158 131 118 119 85 254 271 135 188 195 214 221 193 155 167 171 178 214 235 243 243 206 186 212 206 224 230 238 239 219 225 221 223 172 135 132 165 191 210 152 151 149 156 170 174 183 178 202 217 212 199 195 178 161 167 175 176 179 179 179 177 178 172 170 167 152 149 160 154 151 147 144 145 142 146 145 147 146
188 188 227 325 275 254 189 177 146 140 144 125 130 206 234 133 170 177 188 198 207 182 177 172 191 208 209 223 237 63 144 159 264 261 254 219 193 192 192 225 139 176 186 183 193 196 199 159 150 152 154 155 178 183 178 187 214 214 196 173 166 171 169 170 176 179 178 181 176 176 169 163 152 144 152 153 148 149 146 142 139 141 143 143 140 141 145
177 196 189 230 265 231 159 281 149 154 110 191 209 218 135 140 165 197 175 193 204 191 183 183 209 223 224 241 118 101 159 194 251 248 215 78 52 14 256 191 116 132 134 156 132 126 150 149 152 156 158 169 180 182 183 213 220 179 162 165 163 162 169 174 176 175 175 172 167 162 150 144 147 147 142 144 150 149 146 147 147 144 146 146 146 139 128
58 72 209 276 254 242 120 125 116 264 176 223 182 173 209 224 176 161 201 178 143 138 179 193 203 222 235 235 240 230 210 221 232 221 192 166 161 163 140 107 83 135 129 155 169 173 132 139 154 161 161 171 183 184 209 224 164 150 154 155 158 165 168 173 178 177 176 171 167 163 162 162 157 158 157 156 158 154 152 152 152 153 156 154 148 147 142
177 185 188 211 222 107 146 133 169 202 192 213 161 126 176 281 170 158 152 191 180 182 170 192 212 220 222 270 256 251 245 234 250 265 260 195 161 181 227 180 176 130 134 131 129 70 112 154 158 168 167 177 186 197 223 165 148 139 146 152 152 160 172 175 174 177 176 174 168 169 165 161 161 158 164 163 161 166 165 161 160 160 161 159 155 159 163
184 194 208 141 173 154 185 165 185 169 194 178 208 176 156 172 227 224 135 178 195 185 183 184 189 194 212 221 210 194 230 209 200 211 230 221 210 182 163 158 179 129 142 150 124 104 99 159 176 176 186 176 187 209 222 155 152 153 149 150 155 166 173 172 175 171 166 175 172 172 172 166 166 167 165 164 165 174 167 171 170 168 171 170 172 166 161
323 307 214 195 134 210 217 326 219 164 190 228 130 174 148 216 167 167 169 183 178 185 172 145 177 204 203 208 233 232 244 227 224 198 172 40 46 66 72 74 70 107 87 92 116 130 48 10 233 192 204 184 194 224 180 167 159 150 149 150 162 169 168 169 173 162 166 173 173 176 175 182 182 176 173 176 175 172 177 179 179 174 169 173 172 172 177
169 239 216 171 202 209 198 210 298 275 214 172 171 179 224 191 166 188 222 172 173 171 165 179 179 202 191 194 218 219 234 230 227 183 134 86 119 134 121 101 110 89 101 97 91 60 287 318 341 290 215 237 221 188 177 175 156 147 148 156 158 161 169 166 158 164 170 171 171 172 182 181 179 173 174 180 175 177 184 180 181 178 173 177 177 182 185
182 226 195 185 193 194 203 184 154 171 221 179 196 199 197 185 173 165 143 114 118 132 174 194 176 186 176 184 206 204 215 231 61 123 135 139 114 74 87 88 104 100 105 122 133 156 245 287 326 255 222 222 212 179 174 167 159 148 150 160 164 171 169 160 168 173 177 170 170 178 185 182 180 183 190 189 188 188 187 184 180 186 185 187 188 187 187
235 325 2 50 67 44 247 254 259 227 199 194 198 193 160 174 147 140 93 53 169 179 188 165 153 152 194 182 156 148 155 138 124 145 153 144 130 131 108 101 113 136 149 144 166 170 224 261 283 243 245 253 231 188 173 170 163 158 158 153 147 148 153 153 171 176 176 179 184 182 184 193 207 198 188 194 201 213 229 231 216 198 190 195 197 193 181
191 210 201 138 137 215 232 214 214 214 213 196 192 144 144 166 149 156 132 56 39 86 138 164 165 161 166 170 144 139 142 141 145 129 121 128 123 120 139 128 128 103 104 143 146 171 297 348 29 354 312 310 303 265 185 169 168 157 151 140 141 157 160 171 175 177 187 188 187 184 186 191 194 226 233 203 213 205 216 235 249 306 244 227 219 193 188
216 195 129 178 191 206 205 196 201 203 190 176 186 190 198 189 151 160 138 126 101 91 39 33 146 154 151 163 139 115 107 120 136 143 140 137 138 143 153 111 91 100 93 105 115 98 305 6 13 0 316 317 315 314 251 197 175 163 151 151 157 159 166 188 186 186 185 190 193 191 189 186 193 198 217 224 214 218 212 216 225 244 243 197 181 197 199
228 164 175 175 169 190 202 198 195 199 171 166 200 214 166 153 160 168 155 156 142 152 85 38 59 143 123 140 133 124 116 120 118 100 86 94 112 121 109 113 127 101 77 69 84 309 246 163 218 344 288 312 312 297 284 221 187 164 171 161 176 186 188 186 179 187 191 188 177 184 193 188 190 193 197 211 245 219 199 204 219 219 220 211 208 198 196
207 195 166 174 167 105 1 261 213 165 157 169 184 198 173 152 161 163 145 154 151 144 141 123 80 117 129 137 133 135 135 138 135 132 124 112 110 110 117 104 115 133 160 189 198 221 200 112 16 42 338 284 295 289 271 229 185 171 183 177 175 174 175 176 178 181 179 185 191 192 194 191 198 194 198 205 209 221 216 207 213 217 218 214 209 201 192
111 113 104 95 79 78 81 76 56 162 176 159 126 84 78 135 146 136 139 140 144 142 132 135 122 106 120 126 118 118 107 121 138 132 122 117 127 117 107 129 161 160 158 162 172 161 158 158 183 97 307 285 278 268 274 251 214 204 194 193 184 173 177 180 176 186 190 195 196 202 201 200 201 199 211 210 220 207 202 224 227 232 230 219 207 198 197
95 131 116 71 83 100 258 154 203 183 141 90 110 111 108 106 102 101 91 81 91 104 117 123 118 122 86 93 109 107 116 132 105 102 108 106 100 116 132 149 149 147 140 131 125 110 88 69 44 19 307 297 304 293 279 243 225 227 214 203 191 182 173 174 183 193 195 196 201 199 197 199 199 203 207 209 206 205 206 208 210 211 212 208 206 198 196
110 17 84 146 185 191 193 138 98 93 94 114 122 118 124 117 114 108 99 97 88 87 83 98 125 121 107 118 114 104 93 103 110 118 98 97 105 71 71 95 100 102 99 88 52 46 60 49 38 9 310 309 331 254 236 221 218 233 237 223 212 202 193 188 192 201 200 205 202 202 204 208 207 208 205 200 206 216 215 217 220 223 224 200 186 204 193
32 32 39 53 92 94 92 110 84 83 84 75 103 121 128 110 105 108 109 114 129 118 104 85 64 103 120 138 119 116 119 120 114 108 111 110 83 91 91 94 83 75 70 50 24 43 52 40 30 353 300 309 299 233 211 202 211 222 227 225 210 222 211 208 207 208 212 209 211 213 215 212 206 210 210 213 216 217 218 220 223 225 208 159 130 210 204
69 91 86 81 100 116 108 89 101 98 103 122 120 119 129 120 110 112 124 131 132 113 126 123 108 96 112 113 121 127 127 125 120 118 109 112 120 123 119 115 100 79 62 38 21 38 65 43 26 317 299 314 259 230 201 202 223 227 219 209 205 209 219 207 200 206 208 215 220 217 217 213 215 211 217 217 219 217 221 224 222 212 202 195 196 200 199
90 81 87 92 86 78 99 111 104 103 104 103 111 108 105 110 121 124 125 122 100 113 128 118 116 119 109 118 121 98 94 99 97 94 88 83 74 82 102 87 77 56 47 31 29 55 63 43 337 290 290 288 257 197 187 197 219 222 230 229 231 240 231 212 201 206 208 214 212 212 220 214 216 211 222 222 225 227 230 234 227 218 214 205 207 213 208
94 74 74 77 93 102 97 102 103 101 108 109 102 107 127 129 129 131 129 124 137 134 130 116 118 126 140 127 102 87 89 90 87 80 70 56 53 49 49 43 54 62 63 48 45 44 55 20 330 295 297 263 216 200 185 200 198 214 233 227 219 244 246 240 234 225 209 217 219 214 218 208 221 212 224 221 224 226 227 227 229 226 221 216 220 217 190
105 95 82 103 95 94 102 103 107 96 85 84 75 73 59 64 90 98 110 119 111 103 108 116 118 111 105 94 86 92 101 104 95 83 68 57 44 35 46 60 69 75 76 86 81 66 46 319 299 301 304 271 224 186 197 195 199 218 245 208 225 224 232 242 231 232 230 224 227 226 225 223 224 221 227 228 227 228 227 229 230 231 228 229 229 215 190
130 141 148 156 145 142 136 125 107 100 85 72 75 73 69 64 78 86 82 79 75 66 59 66 75 80 82 79 79 78 104 94 65 55 54 49 41 37 43 72 95 102 100 105 105 67 43 341 311 307 308 336 191 164 176 197 217 238 229 208 214 220 232 239 237 223 228 237 232 235 230 232 230 229 232 231 231 231 234 235 237 233 236 234 226 207 195
81 78 78 81 71 83 100 120 125 118 112 98 77 65 66 70 73 73 63 65 54 21 11 60 65 69 72 72 68 64 66 77 80 73 57 52 39 23 18 65 73 72 72 64 52 38 18 360 356 344 6 27 46 20 106 226 235 237 254 227 234 238 240 234 224 225 229 241 232 232 237 235 238 236 235 232 235 233 237 239 239 238 243 242 235 197 198
83 83 73 66 65 75 80 83 89 98 101 100 96 91 77 71 70 67 63 54 15 21 43 64 78 72 63 65 67 66 72 69 69 67 57 37 16 350 53 61 62 66 84 77 47 20 358 9 0 357 346 358 357 155 171 188 181 219 242 224 243 255 249 238 241 246 250 243 246 239 237 240 241 240 235 240 240 240 241 244 240 240 239 240 234 210 205
56 82 82 73 67 73 70 62 68 90 93 94 95 93 85 63 62 60 53 42 24 13 0 41 79 77 76 76 82 78 67 56 48 46 39 19 6 36 64 65 58 55 63 65 17 2 356 4 351 356 356 356 343 348 330 264 253 234 226 239 239 249 252 259 257 247 255 248 244 249 251 251 249 247 240 237 238 242 240 244 246 243 243 243 237 224 212
44 57 65 69 68 69 64 64 57 77 93 83 59 59 62 75 62 65 59 48 29 4 5 43 66 85 92 90 77 66 55 43 29 26 21 22 348 51 59 57 43 35 50 30 346 349 359 352 352 356 357 358 351 341 335 314 272 232 218 232 237 245 251 252 257 256 253 251 249 246 246 244 248 251 247 239 242 242 243 246 246 246 248 243 237 231 225
61 57 64 69 64 66 75 61 47 42 42 78 88 67 43 58 67 72 62 48 27 357 19 63 89 77 56 67 74 64 48 28 18 17 17 13 5 66 75 68 60 47 32 340 347 354 355 356 354 355 355 349 340 336 332 330 299 245 232 238 249 250 251 254 254 257 257 254 250 247 246 248 246 250 246 244 242 243 244 244 246 247 247 244 240 237 230
51 47 43 55 59 58 69 66 56 57 48 40 55 61 22 40 52 59 59 52 28 19 16 11 50 64 48 48 57 59 35 21 10 16 8 342 63 103 102 76 51 21 3 6 359 354 351 354 359 356 348 341 342 333 329 326 319 291 258 252 252 255 258 256 260 262 263 259 258 258 252 249 249 248 248 250 246 247 246 246 245 247 246 246 243 241 237
48 49 50 60 71 63 70 77 72 61 58 54 50 43 35 28 33 67 54 57 37 34 34 32 61 66 55 52 58 54 41 20 22 11 349 22 64 71 91 76 11 8 359 1 356 351 350 354 353 348 338 340 335 334 332 321 317 300 279 263 260 259 262 262 257 256 258 257 257 254 253 256 256 255 254 250 250 248 247 246 247 244 242 244 246 242 241
27 43 56 56 58 64 70 80 94 80 59 53 49 46 37 35 50 67 68 69 60 53 55 52 57 68 68 51 63 78 56 29 28 22 29 63 108 109 95 76 25 359 350 357 345 348 341 341 345 338 332 328 327 326 327 320 307 298 282 274 265 264 259 263 259 261 258 260 256 259 262 258 257 261 258 256 257 254 251 251 251 249 247 245 246 244 241
20 29 35 47 55 52 54 64 69 85 82 57 46 45 44 42 51 57 62 63 62 60 57 58 56 56 54 42 49 59 51 29 22 21 51 51 50 65 85 352 337 332 346 352 340 345 334 334 330 329 326 329 323 325 327 320 312 293 280 276 269 266 261 260 261 263 265 262 263 261 258 257 258 259 263 261 259 257 256 253 253 254 250 247 246 246 244
32 35 40 46 42 47 58 62 74 72 73 58 45 46 49 49 46 41 34 37 48 52 57 46 48 44 42 25 50 52 37 30 30 356 61 124 90 51 91 50 340 338 352 346 348 336 330 329 324 324 328 328 327 327 324 318 307 298 282 274 273 269 268 269 268 265 263 260 263 259 259 260 262 261 263 265 267 265 259 257 257 256 253 251 248 246 245
33 34 34 48 54 59 54 59 63 70 90 110 83 56 47 44 37 38 30 20 41 36 32 39 39 36 24 14 28 355 304 271 222 183 88 62 55 340 23 16 351 341 341 340 334 324 323 318 321 327 328 326 327 328 323 316 311 300 283 278 268 271 265 266 265 265 261 264 263 264 262 262 261 265 264 267 267 269 266 264 262 258 255 253 251 248 246
28 32 24 30 33 34 24 30 48 87 72 65 66 54 36 26 9 22 29 30 27 20 24 0 29 21 33 3 329 301 288 292 276 191 144 110 110 286 329 339 330 331 332 335 319 319 314 317 326 328 325 325 326 326 318 312 307 309 299 290 279 277 274 271 269 269 268 269 267 268 267 268 269 269 268 269 271 271 274 273 273 267 262 259 255 251 248
17 28 27 28 19 22 25 34 51 63 56 51 42 19 358 5 3 7 6 11 28 20 46 58 52 19 50 136 78 40 13 25 60 84 104 56 19 338 319 327 317 326 334 326 320 317 317 325 328 331 333 330 334 331 323 319 314 305 301 292 290 283 282 282 278 278 278 275 276 277 278 279 278 277 277 276 275 275 277 277 274 273 270 263 261 256 252
20 22 13 19 25 19 45 55 57 54 53 54 26 345 327 334 341 346 4 13 7 16 33 28 32 26 31 30 19 58 98 53 27 307 113 28 348 352 336 337 324 330 332 334 327 315 322 331 334 333 331 336 339 330 328 319 319 312 307 300 295 290 286 283 288 283 281 283 282 280 278 277 274 273 272 272 273 273 274 273 275 276 270 265 261 256 250
22 18 12 30 33 35 49 63 63 59 38 16 20 331 351 339 316 352 15 7 7 10 9 1 1 5 18 26 41 1 306 303 175 239 318 4 325 321 313 318 324 327 334 328 324 316 322 331 331 329 331 336 331 320 315 313 305 304 301 293 291 286 282 280 277 277 277 279 277 276 274 275 274 273 272 273 274 273 271 271 270 271 271 268 264 260 253
3 21 27 26 28 27 37 61 67 79 340 1 352 309 313 338 32 0 17 4 353 348 348 339 331 323 343 350 344 312 280 271 285 269 274 285 293 292 296 305 305 315 320 315 316 314 320 325 327 325 328 325 317 314 312 307 308 301 294 293 292 289 282 279 278 276 276 273 273 273 272 273 272 273 273 273 272 271 271 271 271 270 270 270 266 262 255
13 29 24 17 24 21 57 90 91 80 39 323 339 328 347 20 15 336 341 330 33 3 341 338 334 305 333 347 345 339 337 331 308 303 306 302 302 308 308 307 313 312 312 316 310 307 310 319 311 315 323 319 323 318 314 313 314 312 308 302 294 287 288 281 279 274 270 274 276 277 282 281 284 284 285 284 282 282 282 280 279 278 275 270 270 265 264
301 262 1 10 33 59 108 131 103 48 25 8 338 333 346 341 356 335 311 315 91 184 291 324 334 298 157 282 307 312 298 300 301 301 296 293 294 290 301 312 308 304 306 298 296 297 295 294 301 303 303 308 303 305 307 311 308 303 305 301 300 298 293 298 297 299 300 300 298 295 295 294 294 296 294 294 294 291 291 289 287 285 282 279 276 277 274